Location: Unspecified
(0.0000°N, 0.0000°E)
Time: 03:27:47
(UTC+00:00)

Vanguard 2 - Pass Details

Date: 02 June 2024
Orbit: 552 x 2914 km, 32.9° (Epoch: 14 June)

Event Time Altitude Azimuth Distance (km) Brightness Sun altitude
Rises 18:39:25 0° 336° (NNW) 2,721 11.1 -9.5°
Reaches altitude 10° 18:42:43 10° 7° (N) 1,817 9.7 -10.3°
Maximum altitude 18:44:35 13° 36° (NE) 1,680 9.2 -10.7°
Drops below altitude 10° 18:46:34 10° 64° (ENE) 1,943 9.2 -11.2°
Enters shadow 18:47:20 - 72° (ENE) 2,132 9.4 -11.4°
